Regional Weather Roundup
Issued by NWS Wakefield, VA

Home | Current Version | Previous Version | Text Only | Print | Product List | Glossary On
Versions: 1 2 3 4 5 6 7 8 9 10 11 12 13 14 15 16 17 18 19 20 21 22 23 24 25 26
000
ASUS41 KAKQ 012015
RWRAKQ

REGIONAL WEATHER ROUNDUP
NATIONAL WEATHER SERVICE WAKEFIELD VA
400 PM EDT SAT OCT 01 2016

Note: "fair" indicates few or no clouds below 12,000 feet with no
significant weather and/or obstructions to visibility. * = Denotes
station may not report precipitation (e.g., rain,snow,etc.),
thunder or fog.

VAZ042-051-052>054-056-012100-
NORTHERN VIRGINIA

CITY           SKY/WX    TMP DP  RH WIND       PRES   REMARKS
WASH NATIONAL  CLOUDY    66  65  96 N9        30.07F FOG
DULLES         CLOUDY    64  62  93 NE5       30.08F
FORT BELVOIR   CLOUDY    67  64  89 VRB6      30.07S
QUANTICO       CLOUDY    69  66  90 NE10      30.06F
FREDERICKSBRG* CLOUDY    69  69 100 CALM      30.05S
STAFFORD*      CLOUDY    67  67 100 N6        30.10S FOG
WARRENTON      CLOUDY    66  61  82 N5        30.08R
CULPEPER*      CLOUDY    67  65  93 CALM      30.09S
MANASSAS*      CLOUDY    66  66 100 N5        30.08F FOG
LEESBURG*      CLOUDY    64  64 100 NE3       30.10S
WINCHESTER     CLOUDY    61  61 100 CALM      30.09F FOG
FRONT ROYAL*   CLOUDY    61  61 100 N3        30.09S
LURAY*         FAIR      68  64  88 CALM      30.08F
$$

VAZ048-049-060>072-079>083-012100-
CENTRAL AND SOUTH CENTRAL VIRGINIA

CITY           SKY/WX    TMP DP  RH WIND       PRES   REMARKS
RICHMOND       PTSUNNY   78  63  59 E3        30.03F
CHESTERFIELD*  FAIR      79  57  47 CALM      30.04F
PETERSBURG*    MOSUNNY   78  51  38 CALM      30.04S
HANOVER        PTSUNNY   75  66  73 CALM      30.05F
TAPPAHANNOCK*  PTSUNNY   78  73  84 E6        30.03F
QUINTON*       FAIR      81  67  62 W5        30.02S
CHARLOTTSVILLE CLOUDY    69  63  81 NE7       30.08F
GORDONSVILLE*  NOT AVBL
ORANGE*          N/A     66  66 100 CALM      30.10S
LOUISA*        CLOUDY    72  70  94 N3        30.06F
BUMPASS*       CLOUDY    69  69 100 CALM      30.06F
FARMVILLE*     SUNNY     78  63  58 CALM      30.03F
CREWE*         FAIR      77  65  67 CALM      30.03F
FORT PICKETT*  FAIR      80  57  45 S10G16    30.04S
CHASE CITY*    FAIR      80  57  45 CALM      30.04S
CLARKSVILLE*   FAIR      79  57  47 S6        30.03F
SOUTH HILL*    CLOUDY    80  63  55 S7        30.09F
LAWRENCEVILLE* FAIR      79  62  56 S6        30.04S
EMPORIA*       MOSUNNY   79  63  57 S5        30.05S
$$

VAZ088>098-012100-
SOUTHEAST VIRGINIA

CITY           SKY/WX    TMP DP  RH WIND       PRES   REMARKS
NORFOLK        MOSUNNY   82  67  60 SW8       30.02F
VIRGINIA BEACH PTSUNNY   82  64  54 SW12      30.02S
NORFOLK NAVAL  PTSUNNY   82  72  71 CALM      30.04S
WEST POINT*    MOSUNNY   81  69  67 SE3       30.03F
SALUDA*        MOCLDY    78  74  89 SE7       30.03S
NEWPORT NEWS   PTSUNNY   83  67  58 S8        30.02F
LANGLEY AFB    MOSUNNY   82  66  57 SW7       30.02F
FORT EUSTIS    MOSUNNY   87  71  58 S8        30.00F
WILLIAMSBURG*  MOSUNNY   86  72  62 SE7       30.03S
HR EXEC AP*    FAIR      82  68  61 SW6       30.05S
FRANKLIN*      MOSUNNY   81  64  56 W5        30.03F
US460-WAKEFLD  MOSUNNY   82  62  50 SW6       30.03F
$$

VAZ020-022-025-037-045-012100-
WEST CENTRAL AND SOUTHWEST VIRGINIA

CITY           SKY/WX    TMP DP  RH WIND       PRES   REMARKS
STAUNTON*      CLOUDY    68  61  76 NE6       30.09F
WAYNESBORO*    CLOUDY    67  61  81 CALM      30.09S
HOT SPRINGS VA MOSUNNY   64  54  68 SE7       30.13S
LYNCHBURG      MOSUNNY   75  56  51 SW5       30.06F
DANVILLE       PTSUNNY   80  55  42 MISG      30.03F
SOUTH BOSTON*  FAIR      78  55  44 SW3       30.03S
MARTINSVILLE   MOSUNNY   77  52  41 CALM      30.07S
ROANOKE        PTSUNNY   75  56  51 SE7       30.06F
BLACKSBURG     PTSUNNY   71  53  51 CALM      30.11R
DUBLIN*        CLOUDY    72  51  48 CALM      30.09S
MARION*        MOSUNNY   71  52  51 W8        30.11S
HILLSVILLE*    MOSUNNY   68  52  55 SE6       30.10R
RICHLANDS*     FAIR      68  52  55 SW3       30.10S
WISE*          PTSUNNY   64  41  42 CALM      30.11S
ABINGDON*      MOSUNNY   70  48  45 W7        30.09S
$$

MDZ021>025-VAZ099-100-012100-
SOUTHERN MARYLAND AND THE DELMARVA PENINSULA

CITY           SKY/WX    TMP DP  RH WIND       PRES   REMARKS
PATUXENT RIVER CLOUDY    73  69  87 SE8       30.03F
BAY BRIDGE APT CLOUDY    68  66  94 MISG      30.07S FOG
LEONARDTOWN    CLOUDY    70  68  94 CALM      30.06S
DOVER          CLOUDY    66  66 100 NE16      30.05F
GEORGETOWN     FOG       68  32  26 E10       30.06F VSB 1
EASTON         FOG       72  66  83 E7        30.10R VSB 1
CAMBRIDGE      CLOUDY    72  68  88 E5        30.05R
SALISBURY      PTSUNNY   74  70  87 E9        30.04F
OCEAN CITY     MOSUNNY   74  69  85 SE6       30.05F
WALLOPS ISLAND MOSUNNY   74  72  93 S8        30.05F
ACCOMACK*      CLOUDY   N/A N/A N/A SE5       30.04S
$$

NCZ012>017-030>032-012100-
NORTH CENTRAL AND EASTERN NORTH CAROLINA

CITY           SKY/WX    TMP DP  RH WIND       PRES   REMARKS
ROANOKE RAPIDS FAIR      79  59  50 SW7       30.04S
RALEIGH        PTSUNNY   83  57  41 W9        30.03F
ELIZABETH CITY CLOUDY    81  69  67 SW8       30.04F
AHOSKIE*       CLOUDY    80  65  60 CALM      30.04S
EDENTON*       CLOUDY    84  67  54 SW7       30.05S
CURRITUCK*     CLOUDY    82  69  65 S6        30.05S
KILL DEVIL HLS CLOUDY    83  77  81 SW3       30.03F
MANTEO         CLOUDY    80  73  80 S9        30.05S
CAPE HATTERAS  PTSUNNY   81  74  79 S6        30.05F
TARBORO*       FAIR      83  62  50 SW7       30.05S
GOLDSBORO      MOSUNNY   83  60  45 VRB3      30.02S
WASHINGTON     CLOUDY    80  69  67 CALM      30.04F
GREENVILLE     CLOUDY    82  63  51 CALM      30.06S
NEW BERN       CLOUDY    81  73  76 SW7       30.04F
WILMINGTON     CLOUDY    79  72  79 S9        30.03F
$$

VAZ048-012100-
ELSEWHERE

CITY           SKY/WX    TMP DP  RH WIND       PRES   REMARKS
HARRISBURG PA  RAIN      59  59 100 CALM      30.11R FOG
BALTIMORE      DRIZZLE   63  61  93 NE7       30.08F FOG
ANNAPOLIS      FOG       68  66  93 N6        30.06F VSB 1
ANDREWS AFB    HVY RAIN  64  64 100 NE8       30.06S FOG
PHILADELPHIA   CLOUDY    64  60  87 E14       30.11F
GREENSBORO     MOSUNNY   79  53  40 CALM      30.04S
ROCKY MOUNT    MOSUNNY   82  60  47 SW6       30.04S
$$

VAZ100-012100-
MARINE

STATION/POSITION TIME  TEMP    WIND        PRES    WAVE   SWELL
                       AIR SEA DIR/SP/G            HT/PER HT/PER
                 (UTC) (F)     (DEG/KT/KT) (MB)    (FT/S) (FT/S)
BRANDYWINE LGT   1948   65      80/ 23/ 24   N/A
CAPE MAY NJ      1942   65 69   70/ 10/ 15 1018.0F
LEWES DE         1948   68 69   80/ 16/ 19 1017.8F
OCEAN-CITY-INLET 1942   73 71  150/  8/ 11 1018.0F
WACHAPREAGUE VA  1948   76 77  120/  6/ 10 1017.3F
THOMAS POINT MD  2000   67 71   40/  7/  8 1019.2F
GOOSES REEF MD   2000   72 72  110/  6/  6 1017.9    1/ 3
COVE POINT MD    1948   72     150/  8/ 13 1017.7F
SOLOMONS ISLAND  1942   72 73  100/  9/ 10   N/A
BISHOPS HEAD MD  1948   74 71  110/  5/  6 1017.6S
PINEY POINT MD   1948          120/ 13/ 14   N/A
POTOMAC MD       2000   75 74  140/ 10/ 12 1015.9    2/ 3
CAMBRIDGE MD     1948   71 70   70/  7/  8 1016.8R
LEWISETTA VA     1948   75 72  130/ 13/ 15 1016.0F
RAPPAHANNOCK LGT 1948          120/  9/ 10 1017.6F
STINGRAY PT      2000   77 75   80/  8/ 12 1017.3    1/ 3
YORK RVR RNG VA  1948   77     140/  8/  9 1016.3F
YORKTOWN VA      1948   78 77   70/  4/  6 1016.4F
JAMESTOWN VA     2000   81 77   CALM  /  2   N/A     0
DOMINION TERM VA 1948   82     240/  6/  6 1016.9F
KIPTOPEKE VA     1948      76  180/  8/  9   N/A
CHES BAY BRIDGE  1936   78 77  340/  3/  4 1016.6F
CAPE HENRY VA    1936   83     190/  6/ 14   N/A
WILLOUBY STN VA  1936   78      40/  3/  3   N/A
CAPE HENRY BUOY  1942      76                N/A     4/10   2/11
1ST LANDING BUOY 2000   80 77  320/  4/  6 1016.5    2/ 6
CAPE CHARLES BUO 1926      76                N/A     4/11   2/11
OFFSHORE WE BUOY 1951      76                N/A     5/ 9   2/11
64NM E OF VA BCH 1950   74 73  170/  8/ 12 1017.7S   6/ 9   5/ 9
DUCK PIER NC     1936   80 77  190/  6/  8 1016.8F
44056 DUCK FRF   1941      77                N/A     4/ 9   2/11
OREGON INLET NC  1936   79 78  180/  7/  9 1017.5F
HATTERAS NC      1936   80 79  170/  3/  5 1017.3F
DIAMOND SHLS NC  1950   79 83  180/ 14/ 16 1017.5F   5/11   3/11
CAPE LOOKOUT NC  2000   79     190/ 13/ 15 1017.1F
$$




USA.gov is the U.S. government's official web portal to all federal, state and local government web resources and services.